COSMOS 1285 DEB, 27801

Orbit data source: Space-Track

COSMOS 1285 DEB, 27801 is space debris originally from a launch on Tue, 04 Aug 1981 UTC launched from the Plesetsk Missile And Space Complex (PKMTR). Debris objects in space refer to the collection of defunct objects orbiting the Earth. Examples of debris include non-operational satellites, rocket bodies, and fragments generated from explosions, collisions, or faulty payload assembly.

Loading next visibility...
Identifier
27801, 1981-071Q
Orbit
Molniya
Country
Flag of CISCIS
Related business
Manufacturer
Unknown
Mission
Spacecraft
Bus & Motor
Unknown
Mass
Unknown
Launch date (UTC)
1981-08-04 (45 years ago)
Launch vehicle
Unknown
Launch site
Plesetsk Missile And Space Complex (PKMTR)
Object type
Payload
Rocket body
Debris
Shape & HBR
Unknown shape, 0.4 m
Radar Cross Section
Medium (>0.1 m² and <1 m²)

Expand to show TLE details & history
Last TLE update: 21 hours ago

TLE from 21 hours ago
0 COSMOS 1285 DEB
1 27801U 81071Q   26263.45452194  .00001019  00000-0  00000-0 0  9999
2 27801  63.9098  25.6006 7266602  37.8505 355.4660  1.97968152185451
Epoch: 2026-09-20T10:54Z
TLE epoch observation values (Epoch: 2026-09-20T10:54:30.695Z)
Latitude
0.00009°
Longitude
-137.39359°
Altitude
1,664.259 km
Speed
9.179 km/s
True Right ascension
01h 42m 19s
True Declination
0° 00' 00"
Sunlit
Object was in full shadow at epoch
Visualization orbit readout
Latitude
Unknown
Longitude
Unknown
Altitude
Unknown
Speed
Unknown
Apparent Right ascension
Unknown
Apparent Declination
Unknown
Sunlit
N/A
Visualization observer readout
Local Sidereal Time
00:45:17
Azimuth
Unknown
Elevation
Unknown
Doppler factor
Unknown
Orbital elements
Apogee altitude
39,880.715 km
Perigee altitude
944.894 km
Semi-major axis
26,790.941 km
Eccentricity
0.72666
Inclination
63.9098°
RAAN
25.6006°
Arg. of periapsis
37.8505°
True anomaly
321.0149°
Mean anomaly
355.466°
Eccentric anomaly
343.9667°
Mean motion
0.49495 °/min
Orbital period
727.35 mins
BSTAR
0
Loading maneuver chart data...
Computing Atmospheric mass density...
Loading historical data...
Loading historical data...
Loading historical data...
Loading historical data...
Loading historical data...
Loading historical data...
Loading historical data...

Documentation

Showing up to 5 results
|